Location: Caltech
(34.1382°N, 118.1253°W)
Time: 04:58:29
(UTC-07:00)

Cosmos 2219 - Visible Passes

Search period start: 19 April 2014 00:00
Search period end: 29 April 2014 00:00
Orbit: 833 x 861 km, 71.1° (Epoch: 19 April)

Date Brightness Start Highest point End Pass type
(mag) Time Alt. Az. Time Alt. Az. Time Alt. Az.
19 Apr 5.1 03:00:20 10° N 03:05:06 26° ENE 03:09:51 10° ESE visible
19 Apr 3.7 04:44:03 10° NW 04:49:17 37° WSW 04:54:30 10° S visible
20 Apr 5.1 02:47:01 10° N 02:51:45 26° ENE 02:55:01 16° ESE visible
20 Apr 3.6 04:30:42 10° NW 04:35:57 38° WSW 04:36:44 36° WSW visible
21 Apr 5.1 02:33:43 10° N 02:38:24 25° ENE 02:39:43 23° E visible
21 Apr 3.9 04:17:20 10° NW 04:21:31 36° WNW 04:21:31 36° WNW visible
22 Apr 5.1 02:20:25 10° N 02:25:03 25° ENE 02:25:14 25° ENE visible
22 Apr 4.3 04:03:59 10° NW 04:07:04 29° WNW 04:07:04 29° WNW visible
23 Apr 5.2 02:07:06 10° N 02:11:07 24° NE 02:11:07 24° NE visible
23 Apr 4.7 03:50:37 10° NW 03:52:59 24° NW 03:52:59 24° NW visible
24 Apr 5.3 01:53:48 10° N 01:57:15 22° NE 01:57:15 22° NE visible
24 Apr 4.9 03:37:16 10° NW 03:39:07 20° NW 03:39:07 20° NW visible
25 Apr 5.4 01:40:30 10° N 01:43:32 21° NE 01:43:32 21° NE visible
25 Apr 5.1 03:23:55 10° NW 03:25:25 18° NW 03:25:25 18° NW visible
26 Apr 5.4 01:27:12 10° N 01:29:56 20° NE 01:29:56 20° NE visible
26 Apr 5.2 03:10:33 10° NW 03:11:49 17° NW 03:11:49 17° NW visible
27 Apr 5.5 01:13:54 10° N 01:16:25 19° NNE 01:16:25 19° NNE visible
27 Apr 5.3 02:57:12 10° NW 02:58:19 16° NW 02:58:19 16° NW visible
28 Apr 5.5 01:00:36 10° N 01:02:58 18° NNE 01:02:58 18° NNE visible
28 Apr 5.4 02:43:51 10° NNW 02:44:52 15° NW 02:44:52 15° NW visible
